Location: Beverley
(50.2667°N, 107.9667°W)
Time: 22:03:26
(UTC+00:00)

Envisat - Pass Details

Date: 26 January 2022
Orbit: 764 x 765 km, 98.2° (Epoch: 21 May)

Event Time Altitude Azimuth Distance (km) Brightness Sun altitude
Rises 10:57:17 0° 25° (NNE) 3,243 6.7 -37.5°
Reaches altitude 10° 11:00:13 10° 43° (NE) 2,311 6.0 -37.0°
Maximum altitude 11:03:55 20° 90° (E) 1,716 5.3 -36.5°
Drops below altitude 10° 11:07:37 10° 137° (SE) 2,299 5.7 -35.9°
Sets 11:10:30 0° 154° (SSE) 3,220 6.4 -35.5°
